Temp
89 89 88 88 89 88 89 88 88 89 88 88 87 88 88 89 89 87 88 89 87 88 89 88 88 88 91 94 95 94 91 90 87 92 96 95 89 89 92 91 87 90 80
90 89 88 88 88 89 88 89 89 88 88 87 88 88 88 89 88 87 88 91 88 87 89 88 87 92 87 87 91 87 88 88 88 83 88 91 88 89 88 87 91 94 91
90 90 89 89 88 88 89 88 89 88 88 89 86 87 88 88 89 88 87 89 90 89 89 88 88 88 85 88 88 89 91 90 88 85 84 90 90 88 84 85 86 88 90
90 89 87 87 87 89 89 88 88 87 86 87 87 86 87 89 89 90 88 87 89 90 90 90 89 88 87 86 87 84 83 84 86 83 85 82 80 82 85 85 85 84 86
87 87 86 86 87 87 87 87 88 87 87 87 87 88 88 90 93 89 88 88 87 88 89 90 90 86 76 77 84 83 83 82 80 79 79 76 76 79 78 81 80 76 80
84 86 86 86 85 85 85 85 86 86 86 86 86 87 87 91 77 74 80 87 88 87 86 88 89 82 80 71 69 70 74 78 76 73 78 77 78 80 81 79 79 76 73
84 85 85 85 84 83 85 84 84 84 86 84 85 86 86 87 69 70 71 87 83 87 85 84 86 86 77 83 70 67 67 67 68 79 79 78 76 75 74 75 78 78 74
82 83 84 84 83 83 83 83 83 85 84 84 85 85 85 87 65 65 68 85 84 86 86 85 84 84 81 80 78 76 72 73 74 83 79 73 71 69 72 79 76 75 77
81 81 83 83 82 82 81 82 84 84 84 84 85 84 84 85 62 62 69 86 87 85 84 81 80 80 66 65 82 80 76 74 63 62 62 62 63 63 67 79 77 74 71
80 81 82 83 80 79 79 80 83 83 83 87 84 85 79 84 59 60 68 85 81 77 71 69 61 63 61 61 76 78 72 71 71 72 70 65 67 68 67 73 76 76 76
78 79 80 80 79 79 78 80 80 81 82 80 81 82 82 76 69 58 59 75 75 72 69 66 66 58 56 57 62 77 71 73 68 67 66 64 66 70 72 72 70 75 77
77 77 73 73 73 75 76 75 75 76 75 74 73 72 73 73 63 57 56 60 66 71 65 63 60 55 53 55 62 57 58 61 61 63 62 63 67 69 73 72 72 74 75
73 74 70 69 68 69 70 71 70 69 68 67 67 66 65 66 65 55 55 57 59 64 63 56 53 52 54 57 56 58 60 66 63 63 64 66 72 75 74 74 74 73 73
71 68 66 65 64 62 61 65 68 67 66 65 63 62 61 61 61 61 60 59 57 58 57 58 57 57 57 59 62 62 64 65 66 69 73 76 78 78 78 80 79 79 78
66 66 66 67 61 56 52 51 59 56 60 65 63 62 60 59 58 56 57 59 59 56 56 58 58 59 60 60 62 71 73 73 72 73 73 74 77 78 76 77 77 78 76
64 64 66 64 60 58 56 53 47 47 47 46 46 54 52 51 48 47 47 48 49 52 58 58 58 59 60 63 67 68 68 69 72 75 74 74 73 72 74 76 76 75 74
63 64 65 62 60 59 57 57 55 52 46 44 45 46 46 46 46 46 47 47 49 54 59 60 61 63 65 66 71 73 72 71 71 74 74 73 74 73 73 73 74 73 74
64 57 66 68 66 62 62 62 62 57 55 53 45 46 44 44 44 44 46 53 58 58 60 61 65 68 69 69 69 68 68 69 69 71 71 72 72 72 71 70 71 69 69
65 66 70 73 73 69 71 70 64 60 56 54 54 51 47 43 44 46 48 70 70 71 71 71 71 71 69 68 67 68 69 69 69 71 69 68 68 70 68 70 67 57 59
66 62 64 70 71 70 73 74 71 69 67 70 72 69 67 63 67 69 72 72 72 74 72 70 71 72 70 69 70 70 69 69 70 71 71 71 72 72 71 71 71 72 70
64 62 61 66 64 61 65 60 60 65 73 75 75 71 54 78 76 76 76 76 77 77 76 76 74 74 74 73 72 73 74 73 73 73 73 73 73 72 73 72 72 73 70
61 61 61 61 61 63 69 71 75 78 79 78 76 69 51 80 78 78 77 77 78 78 78 76 76 76 76 75 74 75 74 74 74 76 75 75 74 74 74 74 73 73 72
62 62 63 70 70 65 71 75 80 80 80 79 77 77 79 79 79 79 78 79 79 79 79 79 78 77 78 78 78 77 76 76 76 77 76 75 75 75 74 72 72 71 72
62 72 72 73 72 74 74 72 72 66 75 76 77 77 78 78 79 78 79 79 79 80 80 79 80 79 78 78 78 79 78 78 78 76 74 75 76 67 73 72 73 69 72
75 76 74 76 77 78 76 78 77 77 77 77 77 78 79 80 79 78 79 79 79 80 78 81 81 79 77 77 78 78 57 53 69 59 77 73 71 68 71 72 71 73 70
78 79 79 80 80 78 78 78 78 78 77 78 78 77 77 77 77 77 77 77 78 77 77 79 78 75 76 78 77 57 37 43 61 44 73 75 74 73 73 69 67 70 67
MSLP
1013.43 1013.92 1014.46 1014.91 1015.37 1015.84 1015.96 1016.21 1016.35 1016.53 1016.69 1016.86 1017.05 1017.41 1017.59 1017.60 1017.72 1017.99 1018.01 1018.01 1018.27 1018.23 1018.32 1018.34 1018.37 1018.36 1017.97 1017.42 1017.17 1017.20 1017.47 1017.51 1016.77 1015.95 1015.95 1016.30 1017.18 1017.24 1016.91 1017.41 1017.75 1017.41 1018.54
1012.72 1013.34 1013.82 1014.29 1014.69 1014.95 1015.41 1015.62 1015.93 1016.21 1016.42 1016.63 1016.90 1017.11 1017.31 1017.31 1017.52 1017.76 1017.78 1017.50 1017.98 1018.00 1017.93 1018.10 1018.30 1017.81 1018.03 1017.98 1017.65 1017.64 1017.58 1017.72 1017.35 1016.97 1016.78 1016.56 1016.83 1017.01 1017.16 1017.35 1017.09 1017.16 1017.29
1012.41 1012.77 1013.28 1013.61 1013.98 1014.31 1014.52 1015.02 1015.33 1015.70 1016.01 1016.19 1016.57 1016.64 1016.73 1016.90 1017.11 1017.25 1017.48 1017.57 1017.53 1017.67 1017.67 1017.82 1017.76 1017.80 1017.88 1017.69 1017.77 1017.42 1016.98 1017.13 1017.40 1017.43 1017.37 1016.94 1016.50 1016.76 1017.25 1017.23 1017.18 1017.02 1017.37
1011.82 1012.21 1012.61 1013.08 1013.40 1013.67 1013.94 1014.30 1014.64 1015.02 1015.41 1015.71 1015.93 1016.22 1016.45 1016.44 1016.60 1016.62 1016.93 1017.40 1017.35 1017.40 1017.41 1017.41 1017.51 1017.53 1017.58 1017.67 1017.56 1017.68 1017.89 1017.69 1017.39 1017.66 1017.23 1017.30 1017.30 1017.09 1017.02 1016.61 1016.46 1017.02 1016.75
1011.56 1011.80 1012.11 1012.64 1012.97 1013.32 1013.50 1013.69 1013.95 1014.30 1014.64 1015.03 1015.29 1015.58 1015.79 1015.85 1015.84 1016.17 1016.54 1016.71 1016.92 1017.01 1016.98 1017.00 1017.00 1017.16 1017.63 1017.90 1017.89 1017.83 1017.77 1017.70 1017.64 1017.63 1017.49 1017.33 1017.19 1017.08 1016.98 1017.09 1017.05 1017.33 1017.36
1011.21 1011.20 1011.54 1011.91 1012.48 1012.70 1013.02 1013.30 1013.50 1013.73 1013.97 1014.21 1014.51 1014.88 1015.19 1015.32 1015.27 1015.91 1016.39 1016.54 1016.59 1016.64 1016.63 1016.65 1016.82 1017.13 1017.32 1017.71 1017.91 1018.05 1018.05 1017.90 1017.89 1017.81 1017.46 1017.49 1017.43 1017.51 1017.48 1017.33 1017.43 1017.53 1017.82
1010.73 1010.88 1011.09 1011.37 1011.71 1012.08 1012.32 1012.71 1012.85 1013.10 1013.26 1013.59 1013.87 1014.16 1014.44 1014.87 1015.46 1015.78 1016.24 1016.40 1016.56 1016.34 1016.37 1016.59 1016.58 1016.93 1017.26 1017.43 1017.84 1018.02 1018.16 1018.31 1018.23 1017.85 1017.75 1018.00 1018.11 1018.49 1018.57 1017.91 1017.67 1017.74 1018.09
1010.73 1010.63 1010.68 1010.79 1011.03 1011.35 1011.65 1011.93 1012.16 1012.42 1012.68 1012.80 1013.08 1013.48 1013.92 1014.26 1014.77 1015.34 1015.85 1015.97 1016.02 1015.94 1016.06 1016.39 1016.53 1016.69 1017.25 1017.51 1017.75 1017.95 1018.35 1018.54 1018.60 1017.91 1018.22 1018.96 1019.23 1018.94 1018.57 1018.15 1018.32 1018.52 1018.56
1010.38 1010.32 1010.23 1010.20 1010.29 1010.52 1010.89 1011.19 1011.36 1011.68 1011.89 1012.11 1012.44 1012.78 1013.27 1013.77 1014.55 1015.02 1015.55 1015.27 1015.13 1015.47 1015.90 1016.46 1016.84 1017.07 1017.64 1017.80 1017.43 1017.52 1018.47 1018.83 1019.43 1019.59 1019.64 1019.78 1019.83 1019.62 1019.20 1018.42 1018.45 1018.17 1018.45
1010.24 1010.01 1009.87 1009.78 1009.85 1010.04 1010.26 1010.47 1010.67 1010.90 1011.00 1011.29 1011.87 1012.25 1012.68 1013.30 1014.52 1015.05 1015.40 1015.03 1015.14 1015.71 1016.59 1017.14 1017.43 1017.84 1018.06 1018.20 1017.90 1017.58 1018.05 1018.94 1019.12 1019.52 1019.94 1020.01 1019.72 1019.76 1019.63 1019.22 1019.05 1018.34 1018.38
1010.16 1009.99 1009.87 1009.90 1009.73 1009.84 1010.08 1010.15 1010.23 1010.29 1010.53 1011.19 1011.55 1011.93 1012.48 1013.36 1014.44 1014.88 1015.17 1015.26 1015.42 1016.06 1016.77 1017.61 1018.00 1018.18 1018.48 1018.50 1018.10 1017.69 1017.99 1018.70 1019.43 1019.77 1019.99 1020.02 1019.95 1019.54 1019.65 1019.73 1019.89 1019.14 1018.62
1009.88 1010.02 1010.20 1010.43 1010.43 1010.27 1010.28 1010.38 1010.35 1010.34 1010.92 1011.50 1012.07 1012.64 1013.15 1013.82 1014.34 1014.93 1015.14 1015.55 1015.78 1016.03 1016.97 1017.86 1018.43 1018.65 1018.89 1018.68 1018.66 1018.79 1019.00 1019.34 1019.74 1020.06 1020.18 1020.15 1019.87 1019.70 1019.83 1020.01 1020.25 1019.87 1019.64
1009.86 1010.01 1010.58 1010.94 1011.10 1011.09 1010.97 1011.11 1011.30 1011.39 1011.68 1012.19 1012.61 1013.01 1013.57 1014.30 1014.90 1015.10 1015.45 1015.77 1016.36 1016.84 1017.28 1018.03 1018.82 1019.13 1019.24 1019.23 1019.35 1019.52 1019.67 1019.61 1019.59 1019.81 1019.88 1019.80 1019.62 1019.61 1019.75 1019.73 1019.91 1019.94 1019.94
1009.75 1010.39 1010.95 1011.25 1011.63 1011.77 1011.80 1011.69 1011.97 1012.19 1012.47 1012.77 1013.18 1013.65 1014.16 1014.59 1015.08 1015.59 1016.13 1016.53 1016.83 1017.57 1018.17 1018.69 1019.15 1019.22 1019.45 1019.39 1019.49 1019.54 1019.76 1019.72 1019.27 1019.19 1019.27 1019.32 1019.13 1019.03 1019.24 1019.18 1018.98 1018.97 1018.86
1010.25 1010.69 1011.18 1011.64 1012.29 1012.74 1013.22 1013.37 1013.01 1012.94 1012.74 1012.86 1013.25 1013.66 1014.13 1014.67 1014.93 1015.62 1015.86 1016.55 1017.15 1017.49 1018.05 1018.50 1019.39 1019.42 1019.46 1019.76 1019.41 1019.40 1019.73 1019.69 1019.21 1019.26 1019.48 1019.47 1019.35 1019.20 1019.34 1019.38 1019.21 1018.91 1018.80
1010.31 1010.89 1011.41 1012.03 1012.58 1012.97 1013.51 1013.96 1014.06 1013.82 1012.96 1013.29 1013.72 1014.16 1014.76 1014.98 1015.17 1015.83 1016.46 1016.95 1017.40 1017.97 1018.37 1018.62 1018.90 1019.46 1019.59 1019.35 1019.56 1019.90 1019.99 1019.60 1019.67 1019.49 1019.63 1019.69 1019.67 1019.57 1019.38 1019.47 1019.45 1019.20 1019.08
1010.50 1011.14 1011.78 1012.26 1012.66 1013.16 1013.64 1013.92 1014.39 1014.64 1014.14 1014.39 1014.54 1015.07 1015.71 1016.13 1016.23 1016.58 1016.71 1017.69 1017.96 1018.30 1018.60 1018.44 1018.83 1018.99 1019.68 1019.98 1019.50 1019.42 1019.61 1020.29 1020.38 1020.09 1020.06 1020.09 1020.05 1019.87 1019.93 1019.73 1019.51 1019.62 1019.55
1010.71 1011.28 1011.65 1012.04 1012.43 1013.12 1013.51 1013.82 1014.25 1014.76 1015.22 1015.91 1016.08 1016.09 1016.56 1016.86 1017.16 1017.74 1017.60 1018.28 1018.57 1018.41 1018.85 1018.45 1018.56 1019.01 1019.48 1019.79 1019.93 1020.06 1020.39 1020.55 1020.68 1020.60 1020.47 1020.45 1020.56 1020.44 1020.03 1020.09 1020.24 1020.22 1020.37
1010.95 1011.14 1011.47 1011.50 1011.98 1012.57 1012.89 1013.53 1014.51 1015.21 1015.87 1016.20 1016.71 1017.01 1017.39 1017.66 1017.75 1017.85 1018.05 1017.72 1017.67 1017.74 1017.90 1018.18 1018.73 1019.17 1019.69 1020.01 1020.39 1020.59 1020.58 1020.69 1020.76 1020.79 1020.98 1021.21 1021.17 1020.97 1020.66 1020.64 1020.95 1021.08 1021.05
1011.10 1011.29 1011.79 1011.80 1012.25 1012.64 1012.66 1013.07 1013.85 1014.68 1015.18 1015.41 1015.62 1016.35 1017.20 1017.75 1017.74 1017.54 1017.14 1017.12 1017.29 1017.40 1017.93 1018.41 1018.74 1019.13 1019.73 1020.03 1020.25 1020.48 1020.75 1020.79 1020.96 1021.14 1021.21 1021.35 1021.37 1020.92 1020.66 1020.85 1020.91 1020.65 1020.75
1011.39 1011.87 1012.15 1012.25 1012.70 1013.21 1013.51 1013.96 1014.13 1014.43 1014.25 1014.56 1014.97 1015.64 1016.12 1015.71 1016.14 1016.35 1016.38 1016.77 1016.93 1017.17 1017.51 1017.89 1018.41 1018.94 1019.40 1019.60 1019.99 1020.11 1020.17 1020.57 1020.98 1021.16 1021.18 1021.37 1021.20 1020.93 1021.11 1021.10 1020.95 1020.84 1020.94
1011.17 1011.37 1012.15 1012.48 1013.04 1012.97 1013.23 1013.59 1013.40 1013.44 1013.68 1014.21 1015.14 1015.98 1016.20 1015.29 1015.75 1016.08 1016.43 1016.71 1017.02 1017.26 1017.49 1017.96 1018.26 1018.60 1018.90 1019.29 1019.73 1019.76 1020.02 1020.31 1020.62 1020.83 1020.97 1021.03 1021.08 1021.09 1021.09 1021.21 1021.06 1020.87 1020.89
1011.55 1010.51 1011.49 1012.11 1012.51 1012.92 1013.20 1013.04 1013.03 1013.37 1013.79 1014.25 1014.93 1015.45 1015.25 1015.26 1015.58 1015.93 1016.41 1016.67 1017.04 1017.25 1017.49 1017.69 1018.01 1018.30 1018.65 1019.03 1019.34 1019.61 1019.71 1019.81 1020.15 1020.56 1020.69 1020.85 1020.86 1020.87 1020.92 1020.95 1020.96 1020.82 1020.88
1012.70 1011.92 1011.86 1011.96 1012.50 1012.84 1013.23 1013.59 1013.77 1014.10 1014.34 1014.71 1014.89 1015.22 1015.29 1015.61 1015.78 1016.26 1016.44 1016.81 1017.09 1017.19 1017.49 1017.68 1017.76 1017.93 1018.29 1018.71 1019.06 1019.41 1019.49 1019.82 1020.20 1020.54 1020.73 1020.75 1020.80 1021.11 1021.06 1021.11 1020.96 1021.16 1021.09
1011.93 1011.72 1011.96 1011.98 1012.11 1012.36 1013.01 1013.23 1013.76 1014.03 1014.29 1014.65 1014.93 1015.13 1015.37 1015.69 1016.07 1016.44 1016.70 1016.93 1017.19 1017.22 1017.55 1017.59 1017.66 1017.88 1018.20 1018.45 1018.51 1019.13 1020.04 1020.49 1020.34 1020.80 1020.75 1021.02 1021.21 1021.44 1021.25 1021.04 1021.18 1021.14 1021.33
1011.04 1011.33 1011.56 1011.63 1011.84 1012.32 1012.72 1013.14 1013.65 1013.99 1014.32 1014.65 1015.14 1015.53 1015.84 1016.18 1016.49 1016.80 1017.06 1017.20 1017.33 1017.58 1017.79 1017.89 1018.05 1018.27 1018.16 1018.18 1018.49 1019.25 1020.31 1020.71 1020.97 1021.29 1020.93 1021.05 1021.13 1021.18 1021.25 1021.38 1021.51 1021.10 1021.48
Wind_Speed
14 14 13 11 12 11 10 10 9 8 7 9 9 9 8 9 8 7 6 4 7 6 6 5 6 4 7 7 5 4 3 4 7 8 4 2 5 4 1 0 6 3 9
13 13 14 13 13 13 12 12 11 10 10 8 8 9 10 10 10 11 10 8 8 9 7 5 7 7 6 6 7 4 6 7 8 7 8 7 3 3 4 4 2 1 1
13 13 13 14 14 14 14 13 12 11 11 11 11 11 10 9 9 11 10 10 9 8 7 7 7 7 8 6 7 7 6 4 5 6 7 9 7 4 4 4 4 2 1
12 13 13 14 15 15 14 14 14 13 13 12 11 10 11 11 10 10 10 9 8 8 8 8 8 9 9 8 8 7 6 7 6 7 7 7 3 4 5 6 3 3 2
12 13 14 13 14 14 14 14 14 14 13 13 13 12 11 11 10 10 9 9 8 8 9 9 10 6 1 5 6 7 7 6 6 5 6 4 4 4 4 4 5 5 1
13 15 14 13 14 14 13 14 14 14 14 13 14 13 12 10 6 6 6 8 8 9 9 10 9 6 8 5 4 2 2 4 2 3 5 5 4 3 2 3 3 3 1
11 12 13 14 14 14 13 13 14 15 14 14 14 14 14 13 8 10 9 9 8 10 9 10 7 6 4 7 7 9 8 6 3 5 6 4 3 5 5 4 3 4 2
11 12 13 14 15 15 14 14 14 14 14 13 14 14 14 12 11 11 10 11 9 10 10 9 9 8 5 5 5 5 5 4 5 4 4 5 4 4 3 3 4 3 3
11 11 11 13 14 14 14 15 14 13 13 13 13 14 13 13 9 10 11 11 10 10 7 2 5 6 5 6 8 6 3 5 9 11 11 10 9 10 8 3 1 4 2
11 11 11 11 11 12 13 14 13 12 12 12 13 13 13 12 10 10 8 6 8 5 5 5 9 7 4 6 6 7 7 6 7 8 6 4 3 6 9 7 4 5 4
10 8 9 10 11 11 10 11 11 11 11 10 11 9 8 8 10 11 9 7 6 6 6 4 4 6 2 2 4 2 4 9 7 5 4 3 2 3 4 5 5 4 2
9 5 3 3 4 3 6 3 5 7 8 8 9 7 5 7 5 10 9 4 6 8 7 6 6 7 5 7 7 9 12 9 5 4 3 1 2 1 4 3 4 5 6
6 6 4 3 2 4 1 2 2 2 3 3 4 5 5 4 3 8 10 12 11 9 6 11 11 9 7 10 9 8 6 5 5 3 3 2 2 4 4 4 4 4 5
6 7 5 4 3 5 4 2 3 4 4 5 5 5 5 4 5 6 8 10 17 12 13 7 7 9 7 7 6 6 4 2 3 5 4 3 3 3 2 0 1 1 2
6 7 5 6 5 6 6 5 3 4 1 5 6 6 8 6 6 8 9 8 8 11 11 8 3 4 4 3 4 5 4 3 5 4 4 2 2 1 3 3 3 1 2
6 6 5 6 5 5 5 6 17 8 16 17 16 6 5 9 18 19 18 18 16 9 7 7 7 4 4 4 6 5 4 4 4 3 3 3 3 3 3 2 2 3 3
8 9 7 6 6 5 5 6 8 11 23 19 17 19 15 13 17 15 19 14 11 7 5 6 6 6 5 3 5 3 6 6 2 3 3 4 3 3 2 3 3 3 3
9 8 8 9 9 7 7 8 8 7 8 7 14 11 14 15 15 12 14 9 6 6 4 5 7 7 5 5 5 5 4 4 3 3 3 4 3 3 4 4 4 4 4
9 7 8 10 10 10 9 12 10 9 8 7 6 8 9 10 10 9 6 8 9 8 8 8 7 7 6 6 5 4 3 4 3 3 4 4 3 2 4 3 4 3 4
8 12 8 9 9 7 6 8 9 9 9 8 9 10 9 9 8 7 6 7 7 7 8 8 7 8 7 6 5 5 5 5 4 3 3 3 2 3 3 2 3 3 3
6 8 10 8 8 7 8 7 7 7 9 9 10 8 5 7 8 8 7 7 7 7 8 9 8 7 6 6 5 5 4 4 3 2 2 2 1 3 1 2 2 2 5
6 9 8 8 6 5 9 9 8 9 10 10 9 6 5 5 8 7 8 7 7 7 7 6 6 6 6 6 5 5 4 4 3 1 2 2 1 1 1 2 2 2 3
8 5 8 9 8 9 4 5 8 8 9 9 10 8 6 7 7 7 6 6 6 5 5 5 5 5 5 6 6 5 3 4 4 2 0 1 2 2 2 3 3 3 2
5 7 9 11 11 10 10 9 7 6 7 6 7 5 5 5 5 6 4 5 4 4 3 4 4 6 7 7 6 6 5 4 3 5 1 2 1 4 3 3 2 4 1
10 10 10 9 10 9 8 8 7 7 6 6 6 5 5 4 5 5 4 4 3 3 3 1 2 4 7 10 10 10 11 9 4 6 2 1 3 3 4 4 3 1 2
8 9 8 8 7 9 8 8 8 7 7 6 5 5 5 5 5 5 4 4 3 3 1 0 1 4 5 8 12 10 10 12 7 1 1 2 2 2 2 3 2 4 3
Wind_Direction
200 201 206 207 210 215 223 221 227 222 223 222 224 225 225 225 219 220 241 261 234 246 265 253 264 284 290 301 279 274 296 276 288 304 340 127 297 291 335 214 175 231 122
206 204 204 207 212 209 220 227 224 227 218 218 220 227 231 223 228 223 226 238 221 239 242 262 261 266 294 254 261 274 294 298 279 287 318 302 227 333 316 292 264 281 48
208 211 213 211 214 221 217 217 225 224 231 230 214 231 234 230 232 229 232 230 238 242 250 271 275 279 274 304 295 293 278 272 293 288 285 299 316 336 258 239 239 197 195
226 216 221 220 223 225 222 219 217 218 221 227 232 229 227 229 236 241 229 229 245 249 256 263 274 278 284 281 274 291 290 286 270 269 283 285 270 276 266 289 288 203 266
227 221 225 231 227 226 230 224 221 218 218 224 227 231 232 231 225 213 216 220 242 250 259 262 262 294 353 292 285 278 289 273 279 285 281 312 291 302 332 337 307 0 24
220 230 234 223 226 223 227 229 224 223 217 215 220 229 234 238 203 176 223 247 250 254 258 264 273 236 231 204 173 98 339 268 272 244 274 281 360 334 313 313 319 319 296
245 238 234 228 224 224 225 227 225 224 218 214 219 220 221 228 194 182 185 229 242 260 261 265 262 263 267 190 151 126 116 96 45 319 307 321 327 28 341 307 336 310 18
248 243 239 237 221 223 221 221 223 223 223 217 214 218 227 229 174 183 189 241 238 250 251 259 260 259 237 222 174 128 70 41 359 326 57 77 51 308 274 334 332 345 116
257 258 249 237 236 224 218 224 225 223 221 221 221 217 222 230 158 164 186 242 239 239 239 273 266 213 161 230 189 177 179 123 83 71 79 82 64 43 12 341 260 281 105
256 264 266 251 238 226 225 221 219 218 218 224 220 218 218 228 148 159 199 230 220 199 115 94 48 30 17 287 260 248 180 167 141 133 118 124 110 78 40 39 341 345 8
261 272 270 262 248 240 244 231 222 220 219 215 221 211 203 167 171 173 193 194 195 160 152 140 97 71 48 301 313 220 150 136 114 124 105 59 20 57 61 56 20 349 351
246 242 271 317 331 273 213 202 237 203 187 181 179 171 172 169 166 182 173 211 154 153 134 117 111 100 73 65 78 93 95 102 108 117 114 131 151 114 97 88 65 46 60
227 216 143 115 31 358 82 116 91 88 118 142 168 158 138 136 114 129 138 121 107 106 100 95 105 102 103 75 77 112 131 123 137 144 124 132 114 84 146 160 143 121 105
189 140 139 146 96 46 46 11 184 172 172 168 164 157 148 142 128 119 117 107 100 100 106 93 99 102 88 96 75 57 49 23 143 142 140 113 133 148 121 57 60 34 273
126 131 125 115 102 86 59 15 11 27 317 180 177 165 159 160 141 133 131 124 121 120 125 119 97 74 86 80 97 108 104 101 89 92 90 90 76 75 60 7 3 330 325
133 127 121 115 111 101 98 74 41 40 83 76 56 78 59 97 114 102 95 99 108 110 106 109 117 122 125 125 105 109 130 83 63 65 75 61 41 34 26 46 7 0 357
129 132 120 123 113 108 104 95 96 61 60 56 79 85 77 102 87 106 114 110 119 120 120 107 100 96 87 143 149 114 77 66 55 73 67 41 25 79 319 27 10 1 34
133 134 131 145 126 118 115 103 97 86 91 70 42 80 81 93 96 95 95 101 91 80 106 123 125 129 135 115 105 102 106 108 98 90 78 51 31 13 35 33 26 5 355
143 136 149 139 133 140 136 127 113 104 96 98 97 80 82 84 103 126 166 159 153 143 130 123 126 126 120 112 100 94 84 75 68 84 78 58 43 35 54 43 112 29 283
136 118 126 128 125 115 104 110 113 117 123 124 125 123 133 148 156 169 151 120 124 127 128 127 131 130 129 129 134 132 136 142 124 116 76 81 69 36 65 63 35 20 38
139 130 121 120 114 110 113 117 138 164 151 137 130 123 60 153 139 141 134 137 143 136 143 138 138 132 138 138 138 133 132 124 138 149 157 119 33 79 55 69 32 27 27
149 130 127 114 124 139 145 156 154 146 132 131 121 132 304 163 133 136 132 138 135 142 144 144 154 161 158 157 165 159 145 135 130 148 169 175 170 115 14 334 335 349 337
84 127 116 133 121 112 130 126 129 128 127 130 136 148 169 127 127 132 138 136 147 151 151 175 179 177 177 182 185 182 189 133 109 62 120 192 221 313 319 312 320 319 344
266 153 153 127 145 139 138 135 125 123 130 141 135 148 132 135 132 113 140 141 152 158 171 195 214 210 188 206 193 190 202 122 125 113 335 13 314 171 285 309 306 17 282
189 149 145 140 150 133 134 134 137 146 142 143 153 157 152 148 136 138 134 143 140 157 143 201 221 203 220 212 211 202 110 107 14 64 167 15 350 337 315 299 338 273 331
153 156 155 151 147 138 142 143 146 146 140 133 130 127 129 131 119 112 110 102 118 101 354 66 3 277 251 215 215 155 133 135 157 7 241 186 230 263 284 274 235 260 167